| time (UTC) | temp F | wind direction | speed knots | gust knots | rain 1hr in | rain 24hr in | rain mn in | humidity % | barometer mb |
| 20260506130046 | 75 | 122 | 0.0 | 2.6 | 0.00 | 0.00 | 0.00 | 92 | 1009.8 |
| 20260506125537 | 75 | 219 | 0.9 | 3.5 | 0.00 | 0.00 | 0.00 | 92 | 1009.8 |
| 20260506125035 | 75 | 0 | 0.9 | 3.5 | 0.00 | 0.00 | 0.00 | 92 | 1009.8 |
| 20260506124545 | 75 | 0 | 0.0 | 0.0 | 0.00 | 0.00 | 0.00 | 92 | 1009.7 |
| 20260506124035 | 75 | 0 | 0.0 | 0.0 | 0.00 | 0.00 | 0.00 | 91 | 1009.7 |
| 20260506123535 | 75 | 0 | 0.0 | 0.0 | 0.00 | 0.00 | 0.00 | 91 | 1009.7 |
| 20260506123051 | 75 | 0 | 0.0 | 0.0 | 0.00 | 0.00 | 0.00 | 91 | 1009.6 |
| 20260506122534 | 75 | 0 | 0.0 | 0.0 | 0.00 | 0.00 | 0.00 | 91 | 1009.5 |
| 20260506122036 | 75 | 0 | 0.0 | 0.0 | 0.00 | 0.00 | 0.00 | 91 | 1009.6 |
| 20260506121548 | 75 | 0 | 0.0 | 0.0 | 0.00 | 0.00 | 0.00 | 91 | 1009.6 |
| 20260506121035 | 75 | 0 | 0.0 | 0.0 | 0.00 | 0.00 | 0.00 | 91 | 1009.5 |
| 20260506120535 | 75 | 0 | 0.0 | 0.0 | 0.00 | 0.00 | 0.00 | 91 | 1009.6 |
| 20260506120048 | 75 | 0 | 0.0 | 0.0 | 0.00 | 0.00 | 0.00 | 91 | 1009.6 |
| 20260506115535 | 75 | 0 | 0.0 | 0.9 | 0.00 | 0.00 | 0.00 | 91 | 1009.6 |
| 20260506115036 | 75 | 0 | 0.0 | 1.7 | 0.00 | 0.00 | 0.00 | 91 | 1009.5 |
| 20260506114553 | 75 | 214 | 0.0 | 1.7 | 0.00 | 0.00 | 0.00 | 90 | 1009.4 |
| 20260506114034 | 75 | 214 | 0.0 | 1.7 | 0.00 | 0.00 | 0.00 | 90 | 1009.4 |
| 20260506113535 | 75 | 0 | 0.0 | 1.7 | 0.00 | 0.00 | 0.00 | 90 | 1009.4 |
| 20260506113052 | 75 | 0 | 0.0 | 2.6 | 0.00 | 0.00 | 0.00 | 90 | 1009.4 |
| 20260506112536 | 75 | 0 | 0.0 | 2.6 | 0.00 | 0.00 | 0.00 | 90 | 1009.4 |
| 20260506112035 | 75 | 214 | 0.0 | 2.6 | 0.00 | 0.00 | 0.00 | 90 | 1009.3 |
| 20260506111549 | 75 | 0 | 0.0 | 2.6 | 0.00 | 0.00 | 0.00 | 90 | 1009.3 |
| 20260506111036 | 75 | 0 | 0.0 | 3.5 | 0.00 | 0.00 | 0.00 | 90 | 1009.2 |
| 20260506110535 | 75 | 0 | 0.0 | 3.5 | 0.00 | 0.00 | 0.00 | 90 | 1009.2 |
| 20260506110051 | 75 | 214 | 0.9 | 3.5 | 0.00 | 0.00 | 0.00 | 90 | 1009.0 |
| 20260506105535 | 75 | 138 | 0.0 | 2.6 | 0.00 | 0.00 | 0.00 | 90 | 1008.9 |
| 20260506105037 | 75 | 0 | 0.0 | 1.7 | 0.00 | 0.00 | 0.00 | 90 | 1008.9 |
| 20260506104608 | 75 | 0 | 0.0 | 2.6 | 0.00 | 0.00 | 0.00 | 90 | 1009.0 |
| 20260506104034 | 75 | 0 | 0.0 | 2.6 | 0.00 | 0.00 | 0.00 | 90 | 1008.9 |
| 20260506103535 | 75 | 0 | 0.0 | 2.6 | 0.00 | 0.00 | 0.00 | 90 | 1008.9 |
| 20260506103047 | 75 | 138 | 0.0 | 2.6 | 0.00 | 0.00 | 0.00 | 90 | 1008.9 |
| 20260506102536 | 75 | 138 | 0.0 | 1.7 | 0.00 | 0.00 | 0.00 | 90 | 1008.8 |
| 20260506102035 | 75 | 0 | 0.0 | 1.7 | 0.00 | 0.00 | 0.00 | 90 | 1008.7 |
| 20260506101549 | 75 | 0 | 0.0 | 2.6 | 0.00 | 0.00 | 0.00 | 90 | 1008.7 |
| 20260506101035 | 75 | 138 | 0.0 | 2.6 | 0.00 | 0.00 | 0.00 | 90 | 1008.5 |
| 20260506100535 | 75 | 232 | 0.0 | 2.6 | 0.00 | 0.00 | 0.00 | 90 | 1008.6 |
| 20260506100051 | 75 | 0 | 0.0 | 2.6 | 0.00 | 0.00 | 0.00 | 90 | 1008.5 |
| 20260506095552 | 75 | 195 | 0.9 | 5.2 | 0.00 | 0.00 | 0.00 | 90 | 1008.5 |
| 20260506095035 | 75 | 143 | 1.7 | 5.2 | 0.00 | 0.00 | 0.00 | 90 | 1008.4 |
| 20260506094550 | 75 | 159 | 0.0 | 3.5 | 0.00 | 0.00 | 0.00 | 90 | 1008.3 |
| 20260506094035 | 75 | 159 | 0.9 | 3.5 | 0.00 | 0.00 | 0.00 | 90 | 1008.5 |
| 20260506093537 | 75 | 215 | 0.9 | 2.6 | 0.00 | 0.00 | 0.00 | 90 | 1008.5 |
| 20260506093052 | 75 | 154 | 0.0 | 4.3 | 0.00 | 0.00 | 0.00 | 90 | 1008.4 |
| 20260506092535 | 75 | 170 | 0.9 | 4.3 | 0.00 | 0.00 | 0.00 | 90 | 1008.4 |
| 20260506092035 | 75 | 171 | 0.9 | 5.2 | 0.00 | 0.00 | 0.00 | 90 | 1008.4 |
| 20260506091548 | 75 | 192 | 1.7 | 5.2 | 0.00 | 0.00 | 0.00 | 90 | 1008.5 |
| 20260506091037 | 75 | 171 | 0.9 | 9.6 | 0.00 | 0.00 | 0.00 | 90 | 1008.3 |
| 20260506090536 | 75 | 215 | 1.7 | 9.6 | 0.00 | 0.00 | 0.00 | 90 | 1008.2 |
| 20260506090049 | 75 | 171 | 1.7 | 7.0 | 0.00 | 0.00 | 0.00 | 90 | 1008.3 |
| 20260506085535 | 75 | 166 | 2.6 | 7.0 | 0.00 | 0.00 | 0.00 | 90 | 1008.2 |
| 20260506085035 | 75 | 153 | 1.7 | 7.0 | 0.00 | 0.00 | 0.00 | 90 | 1008.3 |
| 20260506084547 | 75 | 178 | 2.6 | 7.0 | 0.00 | 0.00 | 0.00 | 90 | 1008.2 |
| 20260506084037 | 75 | 156 | 2.6 | 7.0 | 0.00 | 0.00 | 0.00 | 90 | 1008.1 |
| 20260506083536 | 75 | 136 | 0.9 | 9.6 | 0.00 | 0.00 | 0.00 | 90 | 1008.1 |
| 20260506083048 | 75 | 202 | 3.5 | 9.6 | 0.00 | 0.00 | 0.00 | 90 | 1008.1 |
| 20260506082536 | 75 | 200 | 3.5 | 8.7 | 0.00 | 0.00 | 0.00 | 90 | 1008.1 |
| 20260506082035 | 75 | 165 | 2.6 | 7.0 | 0.00 | 0.00 | 0.00 | 90 | 1008.1 |
| 20260506081557 | 75 | 171 | 2.6 | 8.7 | 0.00 | 0.00 | 0.00 | 90 | 1008.0 |
| 20260506081036 | 75 | 145 | 3.5 | 9.6 | 0.00 | 0.00 | 0.00 | 90 | 1007.9 |
| 20260506080535 | 75 | 176 | 4.3 | 9.6 | 0.00 | 0.00 | 0.00 | 90 | 1008.0 |
| 20260506073050 | 75 | 132 | 3.5 | 12.2 | 0.00 | 0.00 | 0.00 | 90 | 1008.3 |
| 20260506072536 | 75 | 225 | 4.3 | 7.8 | 0.00 | 0.00 | 0.00 | 91 | 1008.3 |
| 20260506072036 | 75 | 163 | 2.6 | 7.8 | 0.00 | 0.00 | 0.00 | 91 | 1008.4 |
| 20260506071547 | 75 | 203 | 4.3 | 7.8 | 0.00 | 0.00 | 0.00 | 91 | 1008.4 |
| 20260506071035 | 75 | 164 | 3.5 | 7.8 | 0.00 | 0.00 | 0.00 | 90 | 1008.6 |
| 20260506070537 | 75 | 213 | 2.6 | 11.3 | 0.00 | 0.00 | 0.00 | 90 | 1008.4 |
| 20260506062035 | 75 | 145 | 1.7 | 6.1 | 0.00 | 0.00 | 0.00 | 89 | 1008.5 |
| 20260506061547 | 75 | 154 | 1.7 | 7.8 | 0.00 | 0.00 | 0.00 | 89 | 1008.6 |
| 20260506061035 | 75 | 89 | 2.6 | 7.8 | 0.00 | 0.00 | 0.00 | 89 | 1008.7 |
| 20260506060535 | 75 | 165 | 2.6 | 6.1 | 0.00 | 0.00 | 0.00 | 89 | 1008.9 |
| 20260506051035 | 76 | 177 | 5.2 | 13.9 | 0.00 | 0.00 | 0.00 | 87 | 1008.7 |
| 20260506050535 | 76 | 257 | 3.5 | 10.4 | 0.00 | 0.00 | 0.00 | 87 | 1008.7 |
| 20260506045034 | 76 | 181 | 2.6 | 9.6 | 0.00 | 0.00 | 0.00 | 87 | 1008.7 |
| 20260506044603 | 76 | 175 | 3.5 | 9.6 | 0.00 | 0.00 | 0.00 | 87 | 1008.7 |
| 20260506044034 | 76 | 165 | 3.5 | 9.6 | 0.00 | 0.00 | 0.00 | 86 | 1008.7 |
| 20260506043535 | 76 | 202 | 3.5 | 9.6 | 0.00 | 0.00 | 0.00 | 86 | 1008.7 |
| 20260506043056 | 76 | 132 | 4.3 | 9.6 | 0.00 | 0.00 | 0.00 | 86 | 1008.7 |
| 20260506042536 | 76 | 163 | 3.5 | 8.7 | 0.00 | 0.00 | 0.00 | 86 | 1008.6 |
| 20260506042037 | 76 | 171 | 2.6 | 8.7 | 0.00 | 0.00 | 0.00 | 85 | 1008.6 |
| 20260506041547 | 76 | 138 | 2.6 | 7.8 | 0.00 | 0.00 | 0.00 | 85 | 1008.5 |
| 20260506041035 | 77 | 136 | 3.5 | 7.8 | 0.00 | 0.00 | 0.00 | 85 | 1008.3 |
| 20260506040535 | 77 | 139 | 3.5 | 10.4 | 0.00 | 0.00 | 0.00 | 85 | 1008.2 |
| 20260506040056 | 77 | 140 | 3.5 | 10.4 | 0.00 | 0.00 | 0.00 | 85 | 1008.2 |
| 20260506035535 | 77 | 145 | 3.5 | 10.4 | 0.00 | 0.00 | 0.00 | 84 | 1008.1 |
| 20260506035037 | 77 | 167 | 4.3 | 10.4 | 0.00 | 0.00 | 0.00 | 84 | 1008.0 |
| 20260506034552 | 77 | 173 | 4.3 | 10.4 | 0.00 | 0.00 | 0.00 | 84 | 1008.0 |
| 20260506034037 | 77 | 161 | 4.3 | 11.3 | 0.00 | 0.00 | 0.00 | 84 | 1007.9 |
| 20260506033534 | 77 | 92 | 5.2 | 11.3 | 0.00 | 0.00 | 0.00 | 84 | 1007.7 |
| 20260506033048 | 77 | 166 | 4.3 | 9.6 | 0.00 | 0.00 | 0.00 | 83 | 1007.8 |
| 20260506032536 | 77 | 96 | 3.5 | 9.6 | 0.00 | 0.00 | 0.00 | 83 | 1007.9 |
| 20260506032037 | 77 | 118 | 3.5 | 9.6 | 0.00 | 0.00 | 0.00 | 83 | 1007.8 |
| 20260506031550 | 78 | 94 | 3.5 | 8.7 | 0.00 | 0.00 | 0.00 | 83 | 1007.7 |
| 20260506031038 | 78 | 158 | 4.3 | 8.7 | 0.00 | 0.00 | 0.00 | 83 | 1007.5 |
| 20260506030535 | 78 | 138 | 4.3 | 8.7 | 0.00 | 0.00 | 0.00 | 83 | 1007.6 |
| 20260506030046 | 78 | 231 | 3.5 | 8.7 | 0.00 | 0.00 | 0.00 | 83 | 1007.5 |
| 20260506025538 | 78 | 157 | 2.6 | 12.2 | 0.00 | 0.00 | 0.00 | 83 | 1007.4 |
| 20260506025036 | 78 | 198 | 3.5 | 12.2 | 0.00 | 0.00 | 0.00 | 83 | 1007.4 |
| 20260506024547 | 78 | 195 | 2.6 | 8.7 | 0.00 | 0.00 | 0.00 | 82 | 1007.3 |
| 20260506024036 | 78 | 183 | 3.5 | 8.7 | 0.00 | 0.00 | 0.00 | 82 | 1007.2 |
| 20260506023535 | 78 | 232 | 3.5 | 9.6 | 0.00 | 0.00 | 0.00 | 82 | 1007.1 |
| 20260506023046 | 78 | 165 | 3.5 | 10.4 | 0.00 | 0.00 | 0.00 | 82 | 1007.1 |
| 20260506022536 | 78 | 224 | 4.3 | 10.4 | 0.00 | 0.00 | 0.00 | 82 | 1007.1 |
| 20260506022036 | 78 | 172 | 2.6 | 10.4 | 0.00 | 0.00 | 0.00 | 82 | 1007.1 |
| 20260506021557 | 78 | 149 | 3.5 | 10.4 | 0.00 | 0.00 | 0.00 | 82 | 1007.0 |
| 20260506021036 | 78 | 205 | 3.5 | 7.8 | 0.00 | 0.00 | 0.00 | 82 | 1007.1 |
| 20260506020535 | 78 | 186 | 2.6 | 7.0 | 0.00 | 0.00 | 0.00 | 82 | 1007.1 |
| 20260506020051 | 78 | 208 | 2.6 | 7.8 | 0.00 | 0.00 | 0.00 | 82 | 1007.0 |
| 20260506015536 | 78 | 184 | 3.5 | 7.8 | 0.00 | 0.00 | 0.00 | 82 | 1007.1 |
| 20260506015036 | 78 | 165 | 2.6 | 8.7 | 0.00 | 0.00 | 0.00 | 81 | 1007.1 |
| 20260506014547 | 78 | 186 | 2.6 | 8.7 | 0.00 | 0.00 | 0.00 | 81 | 1006.9 |
| 20260506014039 | 78 | 164 | 2.6 | 6.1 | 0.00 | 0.00 | 0.00 | 81 | 1006.9 |
| 20260506013536 | 79 | 219 | 1.7 | 9.6 | 0.00 | 0.00 | 0.00 | 80 | 1006.8 |
| 20260506013052 | 79 | 119 | 1.7 | 9.6 | 0.00 | 0.00 | 0.00 | 80 | 1006.8 |
| 20260506012539 | 79 | 197 | 2.6 | 8.7 | 0.00 | 0.00 | 0.00 | 80 | 1006.6 |
| 20260506012036 | 79 | 200 | 3.5 | 8.7 | 0.00 | 0.00 | 0.00 | 80 | 1006.5 |
| 20260506011550 | 79 | 153 | 1.7 | 8.7 | 0.00 | 0.00 | 0.00 | 79 | 1006.4 |
| 20260506011040 | 79 | 152 | 2.6 | 8.7 | 0.00 | 0.00 | 0.00 | 79 | 1006.2 |
| 20260506010537 | 79 | 138 | 2.6 | 12.2 | 0.00 | 0.00 | 0.00 | 79 | 1006.2 |
| 20260506010056 | 80 | 140 | 4.3 | 12.2 | 0.00 | 0.00 | 0.00 | 79 | 1006.1 |
| 20260506005537 | 80 | 157 | 4.3 | 10.4 | 0.00 | 0.00 | 0.00 | 79 | 1006.0 |
| 20260506005039 | 80 | 173 | 4.3 | 10.4 | 0.00 | 0.00 | 0.00 | 78 | 1005.9 |
| 20260506004548 | 80 | 199 | 3.5 | 10.4 | 0.00 | 0.00 | 0.00 | 78 | 1005.9 |
| 20260506004037 | 80 | 141 | 4.3 | 10.4 | 0.00 | 0.00 | 0.00 | 78 | 1005.9 |
| 20260506003538 | 81 | 173 | 4.3 | 10.4 | 0.00 | 0.00 | 0.00 | 78 | 1005.8 |
| 20260506003059 | 81 | 234 | 3.5 | 12.2 | 0.00 | 0.00 | 0.00 | 77 | 1005.9 |
| 20260506002536 | 81 | 153 | 4.3 | 14.8 | 0.00 | 0.00 | 0.00 | 77 | 1005.8 |
| 20260506002036 | 81 | 185 | 4.3 | 14.8 | 0.00 | 0.00 | 0.00 | 76 | 1005.8 |
| 20260506001551 | 81 | 217 | 4.3 | 9.6 | 0.00 | 0.00 | 0.00 | 76 | 1005.7 |
| 20260506001037 | 81 | 174 | 4.3 | 9.6 | 0.00 | 0.00 | 0.00 | 76 | 1005.9 |
| 20260506000537 | 82 | 63 | 3.5 | 9.6 | 0.00 | 0.00 | 0.00 | 76 | 1005.9 |
| 20260506000046 | 82 | 207 | 3.5 | 9.6 | 0.00 | 0.00 | 0.00 | 76 | 1005.9 |
| 20260505235536 | 82 | 211 | 4.3 | 9.6 | 0.00 | 0.00 | 0.00 | 76 | 1005.8 |
| 20260505235037 | 82 | 167 | 4.3 | 9.6 | 0.00 | 0.00 | 0.00 | 75 | 1005.8 |
| 20260505234606 | 82 | 197 | 4.3 | 13.0 | 0.00 | 0.00 | 0.00 | 75 | 1005.8 |
| 20260505234035 | 83 | 206 | 5.2 | 13.9 | 0.00 | 0.00 | 0.00 | 74 | 1005.9 |
| 20260505233536 | 83 | 199 | 6.1 | 13.9 | 0.00 | 0.00 | 0.00 | 74 | 1005.8 |
| 20260505233053 | 83 | 173 | 5.2 | 12.2 | 0.00 | 0.00 | 0.00 | 74 | 1005.8 |
| 20260505232540 | 83 | 155 | 4.3 | 12.2 | 0.00 | 0.00 | 0.00 | 74 | 1005.8 |
| 20260505232034 | 83 | 175 | 5.2 | 12.2 | 0.00 | 0.00 | 0.00 | 73 | 1005.9 |
| 20260505231552 | 83 | 154 | 4.3 | 10.4 | 0.00 | 0.00 | 0.00 | 73 | 1005.8 |
| 20260505231040 | 84 | 196 | 5.2 | 10.4 | 0.00 | 0.00 | 0.00 | 73 | 1005.7 |
| 20260505230537 | 84 | 175 | 4.3 | 12.2 | 0.00 | 0.00 | 0.00 | 73 | 1005.6 |
| 20260505230049 | 84 | 216 | 5.2 | 12.2 | 0.00 | 0.00 | 0.00 | 72 | 1005.7 |
| 20260505225539 | 84 | 194 | 5.2 | 11.3 | 0.00 | 0.00 | 0.00 | 72 | 1005.7 |
| 20260505225037 | 84 | 217 | 4.3 | 13.9 | 0.00 | 0.00 | 0.00 | 72 | 1005.7 |
| 20260505224545 | 84 | 253 | 5.2 | 13.9 | 0.00 | 0.00 | 0.00 | 71 | 1005.9 |
| 20260505224036 | 85 | 138 | 3.5 | 13.9 | 0.00 | 0.00 | 0.00 | 72 | 1005.9 |
| 20260505223539 | 85 | 174 | 5.2 | 13.9 | 0.00 | 0.00 | 0.00 | 71 | 1005.9 |
| 20260505223102 | 85 | 248 | 4.3 | 8.7 | 0.00 | 0.00 | 0.00 | 71 | 1005.8 |
| 20260505222537 | 85 | 172 | 3.5 | 8.7 | 0.00 | 0.00 | 0.00 | 72 | 1005.8 |
| 20260505222037 | 85 | 187 | 4.3 | 8.7 | 0.00 | 0.00 | 0.00 | 71 | 1005.8 |
| 20260505221545 | 85 | 172 | 3.5 | 10.4 | 0.00 | 0.00 | 0.00 | 71 | 1005.8 |
| 20260505221038 | 85 | 196 | 4.3 | 10.4 | 0.00 | 0.00 | 0.00 | 70 | 1005.8 |
| 20260505220537 | 85 | 137 | 3.5 | 10.4 | 0.00 | 0.00 | 0.00 | 70 | 1005.8 |
| 20260505220049 | 86 | 174 | 3.5 | 11.3 | 0.00 | 0.00 | 0.00 | 70 | 1006.0 |
| 20260505215536 | 86 | 129 | 4.3 | 11.3 | 0.00 | 0.00 | 0.00 | 70 | 1006.0 |
| 20260505215037 | 86 | 180 | 4.3 | 10.4 | 0.00 | 0.00 | 0.00 | 70 | 1005.9 |
| 20260505214556 | 86 | 186 | 3.5 | 10.4 | 0.00 | 0.00 | 0.00 | 71 | 1005.9 |
| 20260505214035 | 86 | 175 | 4.3 | 10.4 | 0.00 | 0.00 | 0.00 | 70 | 1006.0 |
| 20260505213536 | 86 | 209 | 3.5 | 10.4 | 0.00 | 0.00 | 0.00 | 71 | 1006.0 |
| 20260505213048 | 86 | 93 | 3.5 | 10.4 | 0.00 | 0.00 | 0.00 | 70 | 1006.1 |
| 20260505212535 | 86 | 213 | 4.3 | 9.6 | 0.00 | 0.00 | 0.00 | 70 | 1006.1 |
| 20260505212038 | 86 | 206 | 2.6 | 10.4 | 0.00 | 0.00 | 0.00 | 71 | 1006.2 |
| 20260505211552 | 86 | 182 | 4.3 | 10.4 | 0.00 | 0.00 | 0.00 | 68 | 1006.2 |
| 20260505211036 | 87 | 205 | 3.5 | 8.7 | 0.00 | 0.00 | 0.00 | 69 | 1006.4 |
| 20260505210535 | 86 | 202 | 3.5 | 8.7 | 0.00 | 0.00 | 0.00 | 71 | 1006.4 |
| 20260505210047 | 86 | 159 | 3.5 | 10.4 | 0.00 | 0.00 | 0.00 | 70 | 1006.6 |
| 20260505205536 | 86 | 234 | 5.2 | 10.4 | 0.00 | 0.00 | 0.00 | 69 | 1006.6 |
| 20260505205036 | 86 | 161 | 2.6 | 8.7 | 0.00 | 0.00 | 0.00 | 71 | 1006.7 |
| 20260505204546 | 86 | 223 | 2.6 | 12.2 | 0.00 | 0.00 | 0.00 | 71 | 1006.8 |
| 20260505204036 | 86 | 200 | 4.3 | 12.2 | 0.00 | 0.00 | 0.00 | 70 | 1006.8 |
| 20260505203536 | 86 | 213 | 6.1 | 13.0 | 0.00 | 0.00 | 0.00 | 69 | 1006.8 |
| 20260505203100 | 86 | 143 | 5.2 | 13.0 | 0.00 | 0.00 | 0.00 | 71 | 1007.0 |
| 20260505202536 | 86 | 209 | 4.3 | 12.2 | 0.00 | 0.00 | 0.00 | 71 | 1007.0 |
| 20260505202036 | 85 | 185 | 3.5 | 11.3 | 0.00 | 0.00 | 0.00 | 71 | 1006.9 |
| 20260505201548 | 85 | 235 | 5.2 | 11.3 | 0.00 | 0.00 | 0.00 | 70 | 1007.0 |
| 20260505201037 | 85 | 213 | 4.3 | 10.4 | 0.00 | 0.00 | 0.00 | 71 | 1007.1 |
| 20260505200536 | 85 | 209 | 4.3 | 10.4 | 0.00 | 0.00 | 0.00 | 69 | 1007.2 |
| 20260505200048 | 86 | 171 | 4.3 | 10.4 | 0.00 | 0.00 | 0.00 | 69 | 1007.3 |
| 20260505195539 | 86 | 224 | 2.6 | 9.6 | 0.00 | 0.00 | 0.00 | 71 | 1007.3 |
| 20260505195036 | 85 | 352 | 2.6 | 9.6 | 0.00 | 0.00 | 0.00 | 71 | 1007.3 |
| 20260505194547 | 85 | 212 | 4.3 | 8.7 | 0.00 | 0.00 | 0.00 | 71 | 1007.5 |
| 20260505194037 | 85 | 242 | 3.5 | 8.7 | 0.00 | 0.00 | 0.00 | 71 | 1007.4 |
| 20260505193535 | 84 | 105 | 2.6 | 8.7 | 0.00 | 0.00 | 0.00 | 72 | 1007.5 |
| 20260505193045 | 84 | 153 | 3.5 | 10.4 | 0.00 | 0.00 | 0.00 | 72 | 1007.6 |
| 20260505192540 | 84 | 124 | 3.5 | 11.3 | 0.00 | 0.00 | 0.00 | 72 | 1007.7 |
| 20260505192036 | 84 | 144 | 4.3 | 11.3 | 0.00 | 0.00 | 0.00 | 72 | 1007.7 |
| 20260505191551 | 84 | 311 | 4.3 | 12.2 | 0.00 | 0.00 | 0.00 | 71 | 1007.9 |
| 20260505191037 | 84 | 116 | 4.3 | 12.2 | 0.00 | 0.00 | 0.00 | 72 | 1007.8 |
| 20260505190536 | 84 | 217 | 3.5 | 8.7 | 0.00 | 0.00 | 0.00 | 72 | 1007.8 |
| 20260505190053 | 84 | 148 | 2.6 | 10.4 | 0.00 | 0.00 | 0.00 | 72 | 1007.7 |
| 20260505185542 | 84 | 196 | 3.5 | 11.3 | 0.00 | 0.00 | 0.00 | 72 | 1007.8 |
| 20260505185037 | 84 | 243 | 3.5 | 13.0 | 0.00 | 0.00 | 0.00 | 72 | 1007.7 |
| 20260505184552 | 84 | 198 | 5.2 | 13.0 | 0.00 | 0.00 | 0.00 | 71 | 1007.8 |
| 20260505184037 | 84 | 227 | 5.2 | 10.4 | 0.00 | 0.00 | 0.00 | 71 | 1007.8 |
| 20260505183537 | 84 | 33 | 3.5 | 11.3 | 0.00 | 0.00 | 0.00 | 72 | 1007.8 |
| 20260505183048 | 84 | 192 | 4.3 | 11.3 | 0.00 | 0.00 | 0.00 | 72 | 1007.9 |
| 20260505182540 | 84 | 202 | 2.6 | 8.7 | 0.00 | 0.00 | 0.00 | 74 | 1007.9 |
| 20260505182037 | 83 | 187 | 4.3 | 11.3 | 0.00 | 0.00 | 0.00 | 75 | 1008.0 |
| 20260505181544 | 83 | 230 | 5.2 | 11.3 | 0.00 | 0.00 | 0.00 | 74 | 1008.0 |
| 20260505181041 | 83 | 146 | 4.3 | 11.3 | 0.00 | 0.00 | 0.00 | 75 | 1008.0 |
| 20260505180541 | 82 | 214 | 5.2 | 11.3 | 0.00 | 0.00 | 0.00 | 74 | 1008.0 |
| 20260505180048 | 82 | 192 | 4.3 | 10.4 | 0.00 | 0.00 | 0.00 | 74 | 1008.2 |
| 20260505175540 | 82 | 166 | 5.2 | 10.4 | 0.00 | 0.00 | 0.00 | 75 | 1008.3 |
| 20260505175037 | 82 | 145 | 6.1 | 10.4 | 0.00 | 0.00 | 0.00 | 75 | 1008.2 |
| 20260505174553 | 82 | 170 | 4.3 | 14.8 | 0.00 | 0.00 | 0.00 | 77 | 1008.3 |
| 20260505174037 | 81 | 145 | 3.5 | 14.8 | 0.00 | 0.00 | 0.00 | 78 | 1008.4 |
| 20260505173537 | 81 | 195 | 5.2 | 14.8 | 0.00 | 0.00 | 0.00 | 78 | 1008.5 |
| 20260505173047 | 81 | 211 | 4.3 | 10.4 | 0.00 | 0.00 | 0.00 | 79 | 1008.6 |
| 20260505172534 | 80 | 235 | 3.5 | 10.4 | 0.00 | 0.00 | 0.00 | 79 | 1008.7 |
| 20260505172033 | 80 | 231 | 2.6 | 10.4 | 0.00 | 0.00 | 0.00 | 79 | 1008.7 |
| 20260505171547 | 80 | 218 | 2.6 | 10.4 | 0.00 | 0.00 | 0.00 | 79 | 1008.8 |
| 20260505171037 | 80 | 222 | 3.5 | 9.6 | 0.00 | 0.00 | 0.00 | 80 | 1008.9 |
| 20260505170537 | 79 | 149 | 2.6 | 9.6 | 0.00 | 0.00 | 0.00 | 81 | 1008.9 |
| 20260505170047 | 79 | 182 | 2.6 | 13.0 | 0.00 | 0.00 | 0.00 | 81 | 1008.9 |
| 20260505165534 | 79 | 128 | 3.5 | 13.9 | 0.00 | 0.00 | 0.00 | 81 | 1008.8 |
| 20260505165034 | 79 | 122 | 5.2 | 14.8 | 0.00 | 0.00 | 0.00 | 82 | 1008.8 |
| 20260505164548 | 78 | 128 | 4.3 | 14.8 | 0.00 | 0.00 | 0.00 | 83 | 1008.9 |
| 20260505164034 | 78 | 126 | 4.3 | 10.4 | 0.00 | 0.00 | 0.00 | 83 | 1008.8 |
| 20260505163537 | 78 | 213 | 2.6 | 7.8 | 0.00 | 0.00 | 0.00 | 84 | 1008.9 |
| 20260505163052 | 77 | 200 | 2.6 | 7.8 | 0.00 | 0.00 | 0.00 | 85 | 1008.9 |
| 20260505162541 | 77 | 212 | 2.6 | 8.7 | 0.00 | 0.00 | 0.00 | 85 | 1008.9 |
| 20260505162037 | 77 | 127 | 2.6 | 8.7 | 0.00 | 0.00 | 0.00 | 85 | 1008.9 |
| 20260505161548 | 76 | 235 | 1.7 | 7.8 | 0.00 | 0.00 | 0.00 | 86 | 1008.9 |
| 20260505161036 | 76 | 223 | 2.6 | 7.8 | 0.00 | 0.00 | 0.00 | 86 | 1009.0 |
| 20260505160537 | 76 | 241 | 2.6 | 7.8 | 0.00 | 0.00 | 0.00 | 86 | 1009.1 |
| 20260505153051 | 74 | 198 | 3.5 | 7.8 | 0.00 | 0.00 | 0.00 | 88 | 1008.9 |
| 20260505152534 | 74 | 187 | 2.6 | 7.0 | 0.00 | 0.00 | 0.00 | 88 | 1008.9 |
| 20260505152035 | 74 | 206 | 1.7 | 10.4 | 0.00 | 0.00 | 0.00 | 89 | 1008.9 |
| 20260505151547 | 74 | 205 | 2.6 | 10.4 | 0.00 | 0.00 | 0.00 | 89 | 1008.9 |
| 20260505151034 | 73 | 184 | 3.5 | 10.4 | 0.00 | 0.00 | 0.00 | 89 | 1008.9 |
| 20260505150534 | 73 | 201 | 3.5 | 7.8 | 0.00 | 0.00 | 0.00 | 89 | 1008.8 |
| 20260505140534 | 72 | 210 | 2.6 | 7.8 | 0.00 | 0.00 | 0.00 | 90 | 1008.6 |